| time (UTC) | temp F | wind direction | speed knots | gust knots | rain 1hr in | rain 24hr in | rain mn in | humidity % | barometer mb |
| 20260506171035 | 70 | 201 | 2.6 | 3.5 | 0.00 | 0.67 | 0.67 | 93 | 1016.6 |
| 20260506170532 | 71 | 192 | 4.3 | 5.2 | 0.00 | 0.67 | 0.67 | 93 | 1016.6 |
| 20260506170029 | 70 | 190 | 5.2 | 6.1 | 0.00 | 0.67 | 0.67 | 93 | 1016.2 |
| 20260506165527 | 71 | 191 | 6.1 | 7.8 | 0.00 | 0.67 | 0.67 | 92 | 1016.3 |
| 20260506165023 | 70 | 197 | 4.3 | 5.2 | 0.00 | 0.67 | 0.67 | 93 | 1016.5 |
| 20260506164520 | 70 | 192 | 6.1 | 7.8 | 0.00 | 0.67 | 0.67 | 93 | 1016.6 |
| 20260506164018 | 70 | 178 | 7.0 | 7.8 | 0.00 | 0.67 | 0.67 | 94 | 1016.1 |
| 20260506163513 | 69 | 193 | 5.2 | 8.7 | 0.00 | 0.67 | 0.67 | 96 | 1016.2 |
| 20260506163009 | 69 | 186 | 7.0 | 7.8 | 0.00 | 0.67 | 0.67 | 96 | 1016.3 |
| 20260506162506 | 69 | 189 | 7.8 | 8.7 | 0.00 | 0.67 | 0.67 | 97 | 1016.4 |
| 20260506161957 | 69 | 174 | 7.8 | 8.7 | 0.00 | 0.67 | 0.67 | 98 | 1015.9 |
| 20260506161455 | 68 | 197 | 6.1 | 7.0 | 0.00 | 0.67 | 0.67 | 98 | 1016.2 |
| 20260506160952 | 68 | 187 | 6.1 | 8.7 | 0.00 | 0.67 | 0.67 | 98 | 1016.2 |
| 20260506160450 | 68 | 172 | 7.0 | 7.8 | 0.00 | 0.67 | 0.67 | 99 | 1016.3 |
| 20260506155947 | 68 | 181 | 7.0 | 7.8 | 0.00 | 0.67 | 0.67 | 99 | 1016.3 |
| 20260506155445 | 67 | 190 | 7.0 | 8.7 | 0.00 | 0.67 | 0.67 | 99 | 1016.3 |
| 20260506153616 | 67 | 179 | 6.1 | 7.0 | 0.00 | 0.67 | 0.67 | 99 | 1016.2 |
| 20260506153114 | 67 | 196 | 4.3 | 7.0 | 0.00 | 0.67 | 0.67 | 99 | 1016.7 |
| 20260506152611 | 67 | 188 | 3.5 | 3.5 | 0.00 | 0.67 | 0.67 | 99 | 1017.1 |
| 20260506152108 | 66 | 196 | 1.7 | 6.1 | 0.00 | 0.67 | 0.67 | 99 | 1017.3 |
| 20260506151606 | 66 | 190 | 3.5 | 6.1 | 0.00 | 0.67 | 0.67 | 99 | 1017.2 |
| 20260506151103 | 66 | 195 | 3.5 | 5.2 | 0.00 | 0.67 | 0.67 | 99 | 1017.2 |
| 20260506150600 | 66 | 202 | 3.5 | 3.5 | 0.00 | 0.67 | 0.67 | 99 | 1017.1 |
| 20260506150057 | 66 | 186 | 1.7 | 3.5 | 0.05 | 0.67 | 0.67 | 99 | 1017.2 |
| 20260506145553 | 65 | 149 | 5.2 | 6.1 | 0.05 | 0.67 | 0.67 | 99 | 1016.4 |
| 20260506145051 | 65 | 131 | 5.2 | 6.1 | 0.07 | 0.66 | 0.66 | 99 | 1016.0 |
| 20260506144547 | 66 | 135 | 3.5 | 3.5 | 0.14 | 0.66 | 0.66 | 99 | 1017.1 |
| 20260506144044 | 65 | 146 | 3.5 | 5.2 | 0.07 | 0.65 | 0.65 | 99 | 1017.4 |
| 20260506143542 | 66 | 172 | 3.5 | 5.2 | 0.12 | 0.64 | 0.64 | 99 | 1017.9 |
| 20260506143041 | 65 | 188 | 5.2 | 5.2 | 0.24 | 0.64 | 0.64 | 99 | 1017.9 |
| 20260506142538 | 65 | 177 | 1.7 | 2.6 | 0.35 | 0.61 | 0.61 | 99 | 1017.9 |
| 20260506142036 | 65 | 164 | 0.0 | 0.0 | 1.06 | 0.60 | 0.60 | 99 | 1017.6 |
| 20260506141533 | 65 | 91 | 1.7 | 1.7 | 1.04 | 0.55 | 0.55 | 99 | 1017.4 |
| 20260506141032 | 65 | 208 | 0.0 | 1.7 | 0.42 | 0.42 | 0.42 | 99 | 1018.5 |
| 20260506140529 | 65 | 149 | 0.0 | 0.0 | 0.47 | 0.38 | 0.38 | 99 | 1018.0 |
| 20260506140026 | 65 | 59 | 0.0 | 0.0 | 0.42 | 0.34 | 0.34 | 99 | 1018.0 |
| 20260506135523 | 65 | 232 | 0.0 | 0.0 | 0.31 | 0.30 | 0.30 | 99 | 1017.9 |
| 20260506135019 | 64 | 259 | 0.0 | 0.0 | 0.17 | 0.27 | 0.27 | 99 | 1017.7 |
| 20260506134515 | 64 | 335 | 0.0 | 1.7 | 0.12 | 0.25 | 0.25 | 99 | 1017.7 |
| 20260506134012 | 64 | 290 | 0.9 | 1.7 | 0.19 | 0.24 | 0.24 | 99 | 1017.5 |
| 20260506133509 | 65 | 289 | 1.7 | 2.6 | 0.19 | 0.22 | 0.22 | 98 | 1017.4 |
| 20260506133005 | 65 | 265 | 1.7 | 2.6 | 0.24 | 0.21 | 0.21 | 98 | 1017.7 |
| 20260506132503 | 65 | 338 | 0.0 | 1.7 | 0.24 | 0.19 | 0.19 | 98 | 1017.2 |
| 20260506132000 | 65 | 286 | 0.9 | 1.7 | 0.12 | 0.17 | 0.17 | 98 | 1017.1 |
| 20260506131457 | 65 | 265 | 0.9 | 1.7 | 0.07 | 0.15 | 0.15 | 97 | 1017.0 |
| 20260506130953 | 65 | 281 | 0.9 | 2.6 | 0.12 | 0.15 | 0.15 | 97 | 1017.1 |
| 20260506130450 | 65 | 159 | 0.0 | 2.6 | 0.17 | 0.14 | 0.14 | 97 | 1016.5 |
| 20260506125948 | 65 | 227 | 0.9 | 1.7 | 0.42 | 0.13 | 0.13 | 97 | 1016.9 |
| 20260506125446 | 65 | 174 | 1.7 | 6.1 | 0.40 | 0.10 | 0.10 | 96 | 1016.7 |
| 20260506124944 | 65 | 187 | 0.0 | 1.7 | 0.31 | 0.06 | 0.06 | 96 | 1016.6 |
| 20260506124441 | 65 | 243 | 2.6 | 3.5 | 0.14 | 0.03 | 0.03 | 96 | 1016.4 |
| 20260506123939 | 65 | 176 | 1.7 | 2.6 | 0.00 | 0.01 | 0.01 | 96 | 1015.8 |
| 20260506123437 | 65 | 250 | 0.0 | 0.0 | 0.00 | 0.01 | 0.01 | 96 | 1016.2 |
| 20260506122934 | 65 | 285 | 0.0 | 0.0 | 0.00 | 0.01 | 0.01 | 96 | 1015.8 |
| 20260506122430 | 65 | 274 | 0.9 | 1.7 | 0.00 | 0.01 | 0.01 | 95 | 1015.9 |
| 20260506121929 | 65 | 275 | 0.9 | 1.7 | 0.00 | 0.01 | 0.01 | 95 | 1015.8 |
| 20260506121426 | 65 | 314 | 0.9 | 1.7 | 0.00 | 0.01 | 0.01 | 95 | 1015.7 |
| 20260506120923 | 65 | 282 | 1.7 | 1.7 | 0.00 | 0.01 | 0.01 | 94 | 1015.8 |
| 20260506120420 | 65 | 279 | 1.7 | 1.7 | 0.00 | 0.01 | 0.01 | 94 | 1015.6 |
| 20260506115917 | 65 | 182 | 0.0 | 1.7 | 0.05 | 0.01 | 0.01 | 93 | 1015.6 |
| 20260506115415 | 66 | 225 | 0.0 | 0.9 | 0.05 | 0.01 | 0.01 | 92 | 1015.6 |
| 20260506114913 | 66 | 225 | 0.0 | 0.9 | 0.00 | 0.00 | 0.00 | 91 | 1015.3 |
| 20260506114410 | 66 | 148 | 0.0 | 0.9 | 0.00 | 0.00 | 0.00 | 90 | 1015.4 |
| 20260506113909 | 66 | 219 | 0.9 | 0.9 | 0.00 | 0.00 | 0.00 | 90 | 1015.5 |
| 20260506113406 | 67 | 269 | 0.0 | 1.7 | 0.00 | 0.00 | 0.00 | 89 | 1015.4 |
| 20260506112903 | 67 | 265 | 0.9 | 1.7 | 0.00 | 0.00 | 0.00 | 89 | 1015.3 |
| 20260506112400 | 67 | 171 | 0.0 | 3.5 | 0.00 | 0.00 | 0.00 | 88 | 1015.3 |
| 20260506111857 | 67 | 194 | 1.7 | 3.5 | 0.00 | 0.00 | 0.00 | 88 | 1015.1 |
| 20260506111355 | 67 | 241 | 0.9 | 2.6 | 0.00 | 0.00 | 0.00 | 88 | 1015.2 |
| 20260506110853 | 67 | 163 | 0.0 | 1.7 | 0.00 | 0.00 | 0.00 | 87 | 1015.3 |
| 20260506110350 | 67 | 231 | 1.7 | 1.7 | 0.00 | 0.00 | 0.00 | 87 | 1015.3 |
| 20260506105847 | 68 | 210 | 0.9 | 3.5 | 0.00 | 0.00 | 0.00 | 86 | 1015.3 |
| 20260506105343 | 68 | 201 | 3.5 | 3.5 | 0.00 | 0.00 | 0.00 | 85 | 1014.8 |
| 20260506104841 | 67 | 190 | 0.9 | 3.5 | 0.00 | 0.00 | 0.00 | 85 | 1014.9 |
| 20260506104338 | 68 | 271 | 1.7 | 2.6 | 0.00 | 0.00 | 0.00 | 85 | 1014.7 |
| 20260506103836 | 68 | 169 | 0.0 | 6.1 | 0.00 | 0.00 | 0.00 | 85 | 1014.9 |
| 20260506103333 | 69 | 197 | 2.6 | 6.1 | 0.00 | 0.00 | 0.00 | 85 | 1014.8 |
| 20260506102830 | 68 | 178 | 5.2 | 5.2 | 0.00 | 0.00 | 0.00 | 84 | 1014.5 |
| 20260506102328 | 68 | 190 | 2.6 | 3.5 | 0.00 | 0.00 | 0.00 | 84 | 1014.4 |
| 20260506101825 | 68 | 177 | 4.3 | 5.2 | 0.00 | 0.00 | 0.00 | 83 | 1014.4 |
| 20260506101321 | 68 | 224 | 2.6 | 5.2 | 0.00 | 0.00 | 0.00 | 82 | 1014.4 |
| 20260506100819 | 69 | 313 | 0.9 | 2.6 | 0.00 | 0.00 | 0.00 | 81 | 1014.8 |
| 20260506100317 | 69 | 181 | 2.6 | 5.2 | 0.00 | 0.00 | 0.00 | 81 | 1014.6 |
| 20260506095815 | 69 | 192 | 5.2 | 6.1 | 0.00 | 0.00 | 0.00 | 81 | 1014.4 |
| 20260506095312 | 69 | 192 | 5.2 | 7.0 | 0.00 | 0.00 | 0.00 | 81 | 1014.4 |
| 20260506094809 | 69 | 180 | 7.0 | 8.7 | 0.00 | 0.00 | 0.00 | 81 | 1013.9 |
| 20260506094307 | 69 | 186 | 7.8 | 8.7 | 0.00 | 0.00 | 0.00 | 81 | 1014.0 |
| 20260506093805 | 69 | 177 | 6.1 | 7.8 | 0.00 | 0.00 | 0.00 | 81 | 1014.2 |
| 20260506093302 | 69 | 179 | 6.1 | 7.0 | 0.00 | 0.00 | 0.00 | 81 | 1014.5 |
| 20260506092800 | 69 | 189 | 5.2 | 7.0 | 0.00 | 0.00 | 0.00 | 80 | 1014.5 |
| 20260506092257 | 69 | 199 | 2.6 | 6.1 | 0.00 | 0.00 | 0.00 | 80 | 1014.4 |
| 20260506091754 | 69 | 179 | 4.3 | 6.1 | 0.00 | 0.00 | 0.00 | 80 | 1014.4 |
| 20260506091252 | 69 | 228 | 1.7 | 3.5 | 0.00 | 0.00 | 0.00 | 78 | 1014.2 |
| 20260506090750 | 69 | 184 | 1.7 | 3.5 | 0.00 | 0.00 | 0.00 | 77 | 1014.5 |
| 20260506090246 | 69 | 244 | 2.6 | 5.2 | 0.00 | 0.00 | 0.00 | 78 | 1014.6 |
| 20260506085743 | 69 | 186 | 2.6 | 6.1 | 0.00 | 0.00 | 0.00 | 78 | 1014.6 |
| 20260506085239 | 69 | 224 | 2.6 | 5.2 | 0.00 | 0.00 | 0.00 | 78 | 1014.5 |
| 20260506084736 | 70 | 188 | 5.2 | 7.0 | 0.00 | 0.00 | 0.00 | 79 | 1014.4 |
| 20260506084232 | 69 | 185 | 6.1 | 8.7 | 0.00 | 0.00 | 0.00 | 77 | 1014.4 |
| 20260506083730 | 70 | 187 | 6.1 | 8.7 | 0.00 | 0.00 | 0.00 | 80 | 1014.1 |
| 20260506083228 | 70 | 179 | 8.7 | 9.6 | 0.00 | 0.00 | 0.00 | 77 | 1013.8 |
| 20260506082725 | 70 | 178 | 7.8 | 8.7 | 0.00 | 0.00 | 0.00 | 78 | 1013.9 |
| 20260506082220 | 70 | 188 | 7.0 | 8.7 | 0.00 | 0.00 | 0.00 | 77 | 1014.1 |
| 20260506081718 | 70 | 178 | 7.8 | 8.7 | 0.00 | 0.00 | 0.00 | 77 | 1013.9 |
| 20260506081215 | 70 | 175 | 7.0 | 7.8 | 0.00 | 0.00 | 0.00 | 78 | 1014.0 |
| 20260506080713 | 70 | 180 | 7.0 | 7.8 | 0.00 | 0.00 | 0.00 | 76 | 1013.7 |
| 20260506080209 | 70 | 184 | 7.0 | 8.7 | 0.00 | 0.00 | 0.00 | 76 | 1013.7 |
| 20260506073154 | 70 | 188 | 6.1 | 8.7 | 0.00 | 0.00 | 0.00 | 74 | 1013.8 |
| 20260506072650 | 70 | 174 | 7.8 | 8.7 | 0.00 | 0.00 | 0.00 | 74 | 1013.9 |
| 20260506072148 | 71 | 179 | 7.0 | 7.0 | 0.00 | 0.00 | 0.00 | 75 | 1013.9 |
| 20260506071645 | 70 | 180 | 7.0 | 7.8 | 0.00 | 0.00 | 0.00 | 74 | 1013.8 |
| 20260506071143 | 70 | 184 | 7.8 | 8.7 | 0.00 | 0.00 | 0.00 | 72 | 1013.7 |
| 20260506070640 | 71 | 182 | 7.8 | 8.7 | 0.00 | 0.00 | 0.00 | 75 | 1013.9 |
| 20260506070137 | 71 | 181 | 7.0 | 8.7 | 0.00 | 0.00 | 0.00 | 72 | 1013.7 |
| 20260506062114 | 71 | 182 | 6.1 | 7.0 | 0.00 | 0.00 | 0.00 | 73 | 1014.5 |
| 20260506061610 | 71 | 187 | 6.1 | 7.0 | 0.00 | 0.00 | 0.00 | 72 | 1014.5 |
| 20260506061108 | 71 | 192 | 5.2 | 7.0 | 0.00 | 0.00 | 0.00 | 72 | 1014.7 |
| 20260506060606 | 71 | 183 | 5.2 | 7.8 | 0.00 | 0.00 | 0.00 | 72 | 1014.7 |
| 20260506051034 | 71 | 187 | 3.5 | 6.1 | 0.00 | 0.00 | 0.00 | 68 | 1015.0 |
| 20260506050532 | 71 | 192 | 4.3 | 5.2 | 0.00 | 0.00 | 0.00 | 68 | 1015.0 |
| 20260506045023 | 72 | 195 | 3.5 | 3.5 | 0.00 | 0.00 | 0.00 | 68 | 1015.1 |
| 20260506044521 | 71 | 199 | 2.6 | 5.2 | 0.00 | 0.00 | 0.00 | 66 | 1015.2 |
| 20260506044017 | 72 | 248 | 1.7 | 6.1 | 0.00 | 0.00 | 0.00 | 66 | 1015.2 |
| 20260506043514 | 72 | 196 | 3.5 | 5.2 | 0.00 | 0.00 | 0.00 | 67 | 1015.3 |
| 20260506043013 | 72 | 190 | 4.3 | 6.1 | 0.00 | 0.00 | 0.00 | 66 | 1015.1 |
| 20260506042512 | 72 | 181 | 3.5 | 6.1 | 0.00 | 0.00 | 0.00 | 67 | 1015.1 |
| 20260506042009 | 72 | 186 | 4.3 | 6.1 | 0.00 | 0.00 | 0.00 | 68 | 1015.2 |
| 20260506041508 | 72 | 184 | 4.3 | 5.2 | 0.00 | 0.00 | 0.00 | 66 | 1015.0 |
| 20260506041004 | 72 | 186 | 5.2 | 6.1 | 0.00 | 0.00 | 0.00 | 65 | 1015.2 |
| 20260506040502 | 72 | 181 | 5.2 | 6.1 | 0.00 | 0.00 | 0.00 | 66 | 1015.2 |
| 20260506035957 | 72 | 188 | 4.3 | 6.1 | 0.00 | 0.00 | 0.00 | 67 | 1015.1 |
| 20260506035455 | 72 | 184 | 5.2 | 6.1 | 0.00 | 0.00 | 0.00 | 66 | 1015.2 |
| 20260506034951 | 72 | 188 | 5.2 | 7.8 | 0.00 | 0.00 | 0.00 | 65 | 1015.1 |
| 20260506034449 | 72 | 201 | 4.3 | 6.1 | 0.00 | 0.00 | 0.00 | 67 | 1015.1 |
| 20260506033946 | 72 | 186 | 5.2 | 6.1 | 0.00 | 0.00 | 0.00 | 63 | 1015.3 |
| 20260506033443 | 72 | 188 | 3.5 | 5.2 | 0.00 | 0.00 | 0.00 | 62 | 1015.5 |
| 20260506032939 | 72 | 215 | 1.7 | 5.2 | 0.00 | 0.00 | 0.00 | 63 | 1015.8 |
| 20260506032437 | 72 | 189 | 2.6 | 5.2 | 0.00 | 0.00 | 0.00 | 65 | 1015.5 |
| 20260506031933 | 73 | 180 | 5.2 | 6.1 | 0.00 | 0.00 | 0.00 | 68 | 1015.6 |
| 20260506031431 | 73 | 217 | 4.3 | 6.1 | 0.00 | 0.00 | 0.00 | 66 | 1015.3 |
| 20260506030929 | 73 | 199 | 4.3 | 6.1 | 0.00 | 0.00 | 0.00 | 64 | 1015.5 |
| 20260506030426 | 73 | 175 | 5.2 | 6.1 | 0.00 | 0.00 | 0.00 | 64 | 1015.2 |
| 20260506025923 | 73 | 184 | 3.5 | 3.5 | 0.00 | 0.00 | 0.00 | 65 | 1015.3 |
| 20260506025420 | 73 | 191 | 4.3 | 5.2 | 0.00 | 0.00 | 0.00 | 66 | 1015.6 |
| 20260506024916 | 73 | 233 | 0.9 | 3.5 | 0.00 | 0.00 | 0.00 | 60 | 1015.9 |
| 20260506024414 | 73 | 199 | 3.5 | 5.2 | 0.00 | 0.00 | 0.00 | 60 | 1015.8 |
| 20260506023909 | 73 | 201 | 3.5 | 5.2 | 0.00 | 0.00 | 0.00 | 60 | 1015.8 |
| 20260506023407 | 73 | 194 | 4.3 | 6.1 | 0.00 | 0.00 | 0.00 | 60 | 1015.8 |
| 20260506022903 | 73 | 192 | 1.7 | 6.1 | 0.00 | 0.00 | 0.00 | 61 | 1015.6 |
| 20260506022401 | 73 | 189 | 5.2 | 6.1 | 0.00 | 0.00 | 0.00 | 61 | 1015.1 |
| 20260506021859 | 72 | 197 | 6.1 | 7.0 | 0.00 | 0.00 | 0.00 | 62 | 1015.1 |
| 20260506021355 | 73 | 199 | 4.3 | 6.1 | 0.00 | 0.00 | 0.00 | 64 | 1015.0 |
| 20260506020852 | 72 | 203 | 2.6 | 6.1 | 0.00 | 0.00 | 0.00 | 61 | 1015.0 |
| 20260506020350 | 72 | 203 | 3.5 | 3.5 | 0.00 | 0.00 | 0.00 | 62 | 1015.1 |
| 20260506015847 | 72 | 187 | 5.2 | 6.1 | 0.00 | 0.00 | 0.00 | 61 | 1014.8 |
| 20260506015345 | 72 | 215 | 3.5 | 6.1 | 0.00 | 0.00 | 0.00 | 62 | 1014.9 |
| 20260506014841 | 72 | 187 | 5.2 | 6.1 | 0.00 | 0.00 | 0.00 | 62 | 1015.0 |
| 20260506014338 | 72 | 214 | 1.7 | 5.2 | 0.00 | 0.00 | 0.00 | 63 | 1014.8 |
| 20260506013835 | 72 | 201 | 2.6 | 5.2 | 0.00 | 0.00 | 0.00 | 63 | 1014.8 |
| 20260506013332 | 73 | 192 | 3.5 | 6.1 | 0.00 | 0.00 | 0.00 | 66 | 1014.7 |
| 20260506012829 | 73 | 184 | 4.3 | 5.2 | 0.00 | 0.00 | 0.00 | 66 | 1014.9 |
| 20260506012326 | 73 | 186 | 4.3 | 6.1 | 0.00 | 0.00 | 0.00 | 62 | 1014.8 |
| 20260506011823 | 73 | 186 | 4.3 | 6.1 | 0.00 | 0.00 | 0.00 | 62 | 1014.7 |
| 20260506011319 | 73 | 193 | 3.5 | 6.1 | 0.00 | 0.00 | 0.00 | 61 | 1014.6 |
| 20260506010817 | 73 | 197 | 3.5 | 7.0 | 0.00 | 0.00 | 0.00 | 64 | 1014.6 |
| 20260506010315 | 73 | 187 | 5.2 | 6.1 | 0.00 | 0.00 | 0.00 | 64 | 1014.7 |
| 20260506005811 | 73 | 188 | 5.2 | 7.0 | 0.00 | 0.00 | 0.00 | 65 | 1014.4 |
| 20260506005308 | 73 | 179 | 6.1 | 7.0 | 0.00 | 0.00 | 0.00 | 61 | 1014.5 |
| 20260506004805 | 73 | 182 | 5.2 | 7.8 | 0.00 | 0.00 | 0.00 | 62 | 1014.4 |
| 20260506004302 | 73 | 177 | 6.1 | 6.1 | 0.00 | 0.00 | 0.00 | 63 | 1014.4 |
| 20260506003758 | 73 | 176 | 5.2 | 6.1 | 0.00 | 0.00 | 0.00 | 62 | 1014.5 |
| 20260506003254 | 73 | 182 | 4.3 | 5.2 | 0.00 | 0.00 | 0.00 | 61 | 1014.5 |
| 20260506002751 | 73 | 182 | 3.5 | 3.5 | 0.00 | 0.00 | 0.00 | 66 | 1014.4 |
| 20260506002247 | 73 | 188 | 3.5 | 5.2 | 0.00 | 0.00 | 0.00 | 64 | 1014.6 |
| 20260506001743 | 73 | 193 | 1.7 | 5.2 | 0.00 | 0.00 | 0.00 | 60 | 1014.9 |
| 20260506001241 | 73 | 198 | 3.5 | 3.5 | 0.00 | 0.00 | 0.00 | 60 | 1014.7 |
| 20260506000737 | 72 | 206 | 0.9 | 3.5 | 0.00 | 0.00 | 0.00 | 57 | 1015.1 |
| 20260506000235 | 71 | 198 | 0.0 | 1.7 | 0.00 | 0.00 | 0.00 | 60 | 1014.9 |
| 20260505235732 | 71 | 180 | 0.9 | 1.7 | 0.00 | 0.00 | 0.00 | 62 | 1014.9 |
| 20260505235230 | 71 | 301 | 0.0 | 0.9 | 0.00 | 0.00 | 0.00 | 62 | 1014.9 |
| 20260505234726 | 71 | 338 | 0.0 | 2.6 | 0.00 | 0.00 | 0.00 | 62 | 1014.8 |
| 20260505234224 | 71 | 219 | 0.0 | 0.9 | 0.00 | 0.00 | 0.00 | 64 | 1014.8 |
| 20260505233720 | 72 | 16 | 0.0 | 0.9 | 0.00 | 0.00 | 0.00 | 60 | 1014.7 |
| 20260505233218 | 72 | 162 | 0.0 | 2.6 | 0.00 | 0.00 | 0.00 | 61 | 1015.0 |
| 20260505232715 | 73 | 267 | 0.9 | 1.7 | 0.00 | 0.00 | 0.00 | 60 | 1014.8 |
| 20260505232212 | 72 | 171 | 0.0 | 0.9 | 0.00 | 0.00 | 0.00 | 58 | 1014.9 |
| 20260505231709 | 73 | 324 | 0.0 | 0.9 | 0.00 | 0.00 | 0.00 | 59 | 1014.8 |
| 20260505231208 | 73 | 194 | 0.0 | 3.5 | 0.00 | 0.00 | 0.00 | 57 | 1014.8 |
| 20260505230706 | 73 | 195 | 3.5 | 5.2 | 0.00 | 0.00 | 0.00 | 56 | 1015.0 |
| 20260505230202 | 73 | 203 | 2.6 | 5.2 | 0.00 | 0.00 | 0.00 | 56 | 1014.8 |
| 20260505225658 | 73 | 187 | 0.9 | 2.6 | 0.00 | 0.00 | 0.00 | 60 | 1014.8 |
| 20260505225155 | 73 | 193 | 2.6 | 3.5 | 0.00 | 0.00 | 0.00 | 60 | 1014.6 |
| 20260505224651 | 73 | 187 | 4.3 | 5.2 | 0.00 | 0.00 | 0.00 | 63 | 1014.4 |
| 20260505224149 | 73 | 194 | 2.6 | 3.5 | 0.00 | 0.00 | 0.00 | 56 | 1014.6 |
| 20260505223646 | 72 | 195 | 0.0 | 3.5 | 0.00 | 0.00 | 0.00 | 57 | 1015.0 |
| 20260505223142 | 73 | 100 | 0.0 | 1.7 | 0.00 | 0.00 | 0.00 | 59 | 1014.9 |
| 20260505222638 | 73 | 221 | 0.9 | 2.6 | 0.00 | 0.00 | 0.00 | 58 | 1015.0 |
| 20260505222135 | 73 | 192 | 2.6 | 3.5 | 0.00 | 0.00 | 0.00 | 56 | 1014.8 |
| 20260505221632 | 73 | 208 | 2.6 | 3.5 | 0.00 | 0.00 | 0.00 | 57 | 1014.8 |
| 20260505221128 | 73 | 200 | 3.5 | 3.5 | 0.00 | 0.00 | 0.00 | 52 | 1015.0 |
| 20260505220626 | 74 | 179 | 3.5 | 3.5 | 0.00 | 0.00 | 0.00 | 56 | 1015.2 |
| 20260505220123 | 74 | 189 | 4.3 | 6.1 | 0.00 | 0.00 | 0.00 | 57 | 1014.9 |
| 20260505215621 | 74 | 189 | 5.2 | 7.0 | 0.00 | 0.00 | 0.00 | 58 | 1014.8 |
| 20260505215119 | 74 | 172 | 4.3 | 7.8 | 0.00 | 0.00 | 0.00 | 47 | 1015.0 |
| 20260505214617 | 74 | 173 | 4.3 | 6.1 | 0.00 | 0.00 | 0.00 | 56 | 1014.8 |
| 20260505214113 | 74 | 179 | 4.3 | 7.0 | 0.00 | 0.00 | 0.00 | 60 | 1014.9 |
| 20260505213611 | 74 | 185 | 5.2 | 7.8 | 0.00 | 0.00 | 0.00 | 57 | 1014.8 |
| 20260505213107 | 74 | 178 | 5.2 | 7.0 | 0.00 | 0.00 | 0.00 | 60 | 1015.0 |
| 20260505212603 | 74 | 192 | 7.0 | 9.6 | 0.00 | 0.00 | 0.00 | 57 | 1015.2 |
| 20260505212102 | 74 | 180 | 7.8 | 9.6 | 0.00 | 0.00 | 0.00 | 56 | 1015.3 |
| 20260505211558 | 75 | 204 | 7.8 | 8.7 | 0.00 | 0.00 | 0.00 | 55 | 1015.0 |
| 20260505211055 | 75 | 175 | 7.8 | 9.6 | 0.00 | 0.00 | 0.00 | 54 | 1015.4 |
| 20260505210552 | 75 | 192 | 5.2 | 8.7 | 0.00 | 0.00 | 0.00 | 56 | 1015.6 |
| 20260505210049 | 76 | 191 | 8.7 | 8.7 | 0.00 | 0.00 | 0.00 | 58 | 1015.4 |
| 20260505205546 | 76 | 176 | 9.6 | 11.3 | 0.00 | 0.00 | 0.00 | 55 | 1015.5 |
| 20260505205044 | 76 | 177 | 7.0 | 9.6 | 0.00 | 0.00 | 0.00 | 52 | 1015.1 |
| 20260505204541 | 76 | 180 | 8.7 | 12.2 | 0.00 | 0.00 | 0.00 | 49 | 1015.2 |
| 20260505204038 | 76 | 174 | 8.7 | 12.2 | 0.00 | 0.00 | 0.00 | 49 | 1015.2 |
| 20260505203535 | 76 | 181 | 9.6 | 9.6 | 0.00 | 0.00 | 0.00 | 51 | 1015.4 |
| 20260505203032 | 76 | 179 | 7.8 | 7.8 | 0.00 | 0.00 | 0.00 | 55 | 1015.5 |
| 20260505202528 | 76 | 177 | 7.0 | 12.2 | 0.00 | 0.00 | 0.00 | 56 | 1015.6 |
| 20260505202024 | 76 | 243 | 4.3 | 7.0 | 0.00 | 0.00 | 0.00 | 53 | 1015.5 |
| 20260505201521 | 76 | 191 | 5.2 | 11.3 | 0.00 | 0.00 | 0.00 | 55 | 1015.6 |
| 20260505201018 | 76 | 187 | 8.7 | 11.3 | 0.00 | 0.00 | 0.00 | 57 | 1015.8 |
| 20260505200517 | 76 | 200 | 9.6 | 11.3 | 0.00 | 0.00 | 0.00 | 55 | 1016.0 |
| 20260505200013 | 76 | 190 | 4.3 | 7.8 | 0.00 | 0.00 | 0.00 | 51 | 1015.9 |
| 20260505195509 | 76 | 188 | 11.3 | 13.0 | 0.00 | 0.00 | 0.00 | 55 | 1015.9 |
| 20260505195007 | 77 | 169 | 7.8 | 12.2 | 0.00 | 0.00 | 0.00 | 52 | 1015.9 |
| 20260505194504 | 76 | 185 | 7.8 | 12.2 | 0.00 | 0.00 | 0.00 | 55 | 1015.8 |
| 20260505194004 | 76 | 185 | 9.6 | 12.2 | 0.00 | 0.00 | 0.00 | 53 | 1015.9 |
| 20260505193502 | 76 | 185 | 8.7 | 9.6 | 0.00 | 0.00 | 0.00 | 54 | 1016.3 |
| 20260505192959 | 76 | 188 | 11.3 | 13.0 | 0.00 | 0.00 | 0.00 | 52 | 1016.3 |
| 20260505192457 | 77 | 171 | 10.4 | 13.0 | 0.00 | 0.00 | 0.00 | 50 | 1016.3 |
| 20260505191954 | 76 | 232 | 3.5 | 7.8 | 0.00 | 0.00 | 0.00 | 50 | 1016.3 |
| 20260505191453 | 76 | 180 | 9.6 | 12.2 | 0.00 | 0.00 | 0.00 | 50 | 1016.4 |
| 20260505190950 | 76 | 194 | 7.0 | 11.3 | 0.00 | 0.00 | 0.00 | 52 | 1016.2 |
| 20260505190444 | 76 | 194 | 7.8 | 8.7 | 0.00 | 0.00 | 0.00 | 48 | 1016.3 |
| 20260505185940 | 76 | 187 | 7.8 | 9.6 | 0.00 | 0.00 | 0.00 | 48 | 1016.1 |
| 20260505185438 | 76 | 181 | 9.6 | 12.2 | 0.00 | 0.00 | 0.00 | 53 | 1016.3 |
| 20260505184934 | 76 | 161 | 8.7 | 9.6 | 0.00 | 0.00 | 0.00 | 46 | 1016.3 |
| 20260505184431 | 76 | 188 | 10.4 | 12.2 | 0.00 | 0.00 | 0.00 | 51 | 1016.5 |
| 20260505183927 | 75 | 184 | 7.8 | 9.6 | 0.00 | 0.00 | 0.00 | 53 | 1016.6 |
| 20260505183425 | 76 | 192 | 9.6 | 11.3 | 0.00 | 0.00 | 0.00 | 55 | 1016.6 |
| 20260505182921 | 76 | 175 | 8.7 | 12.2 | 0.00 | 0.00 | 0.00 | 53 | 1016.3 |
| 20260505182418 | 76 | 162 | 7.0 | 11.3 | 0.00 | 0.00 | 0.00 | 53 | 1016.7 |
| 20260505181914 | 75 | 168 | 9.6 | 9.6 | 0.00 | 0.00 | 0.00 | 49 | 1016.8 |
| 20260505181412 | 76 | 200 | 6.1 | 8.7 | 0.00 | 0.00 | 0.00 | 55 | 1017.1 |
| 20260505180908 | 76 | 173 | 8.7 | 9.6 | 0.00 | 0.00 | 0.00 | 54 | 1017.1 |
| 20260505180405 | 75 | 179 | 7.8 | 8.7 | 0.00 | 0.00 | 0.00 | 57 | 1017.1 |
| 20260505175902 | 76 | 179 | 7.8 | 13.0 | 0.00 | 0.00 | 0.00 | 60 | 1017.1 |
| 20260505175358 | 75 | 169 | 7.0 | 8.7 | 0.00 | 0.00 | 0.00 | 51 | 1017.1 |
| 20260505174854 | 75 | 160 | 7.8 | 9.6 | 0.00 | 0.00 | 0.00 | 51 | 1017.1 |
| 20260505174352 | 75 | 173 | 7.8 | 8.7 | 0.00 | 0.00 | 0.00 | 53 | 1017.2 |
| 20260505173848 | 75 | 163 | 4.3 | 7.8 | 0.00 | 0.00 | 0.00 | 51 | 1017.4 |
| 20260505173344 | 75 | 190 | 8.7 | 9.6 | 0.00 | 0.00 | 0.00 | 56 | 1017.1 |
| 20260505172842 | 75 | 191 | 6.1 | 7.8 | 0.00 | 0.00 | 0.00 | 57 | 1017.3 |
| 20260505172339 | 75 | 183 | 5.2 | 7.8 | 0.00 | 0.00 | 0.00 | 57 | 1017.4 |
| 20260505171839 | 75 | 174 | 4.3 | 7.0 | 0.00 | 0.00 | 0.00 | 55 | 1017.6 |